Location: Bosdarros
(43.2167°N, 0.3667°W)
Time: 11:46:14
(UTC+00:00)

FENGYUN 1C DEB - Pass Details

Date: 30 October 2021
Orbit: 805 x 871 km, 98.8° (Epoch: 26 November)

Event Time Altitude Azimuth Distance (km) Brightness Sun altitude
Exits shadow 17:31:43 - 79° (E) 2,520 ? -7.2°
Reaches altitude 10° 17:32:38 10° 70° (ENE) 2,401 ? -7.3°
Maximum altitude 17:34:00 11° 55° (NE) 2,337 ? -7.6°
Drops below altitude 10° 17:35:22 10° 40° (NE) 2,412 ? -7.8°
Sets 17:39:42 0° 6° (N) 3,365 ? -8.6°
